Regional Weather Roundup
Issued by NWS

Home | Current Version | Previous Version | Text Only | Print | Product List | Glossary Off
Versions: 1 2 3 4 5 6 7 8 9 10 11 12 13 14 15 16 17 18 19 20 21 22 23 24 25 26 27 28 29 30 31 32 33 34 35 36 37 38 39 40 41 42 43 44 45 46 47 48 49 50

000
ASUS43 KDTX 230001
RWRMI
MICHIGAN HOURLY REGIONAL WEATHER ROUNDUP
NATIONAL WEATHER SERVICE DETROIT/PONTIAC MI
800 PM EDT SUN OCT 22 2017

NOTE: "FAIR" INDICATES FEW OR NO CLOUDS BELOW 12,000 FEET WITH NO
SIGNIFICANT WEATHER AND/OR OBSTRUCTION TO VISIBILITY.

MIZ047>049-052>055-059>063-066>070-074>076-081>083-230100-
SOUTHEAST LOWER MICHIGAN

CITY           SKY/WX    TMP DP  RH WIND       PRES   REMARKS
ADRIAN         CLOUDY    71  52  50 S16       30.05R
6HR MIN TEMP:  71; 6HR MAX TEMP:  78;

ALMA           CLOUDY    69  58  69 SW7       29.97S
6HR MIN TEMP:  69; 6HR MAX TEMP:  77;

ANN ARBOR      PTCLDY    70  54  56 SE5       30.03S
BAD AXE        CLOUDY    69  55  60 S13G21    30.01S
6HR MIN TEMP:  69; 6HR MAX TEMP:  76;

CARO           CLOUDY    70  55  58 SE12G18   29.99S
DETROIT CITY   MOCLDY    69  54  58 S9        30.05S
6HR MIN TEMP:  69; 6HR MAX TEMP:  76;

DETROIT        MOCLDY    70  55  59 SE8       30.05S
6HR MIN TEMP:  70; 6HR MAX TEMP:  79;

FLINT          PTCLDY    67  55  65 S9        30.01S
6HR MIN TEMP:  67; 6HR MAX TEMP:  78;

GROSSE ILE     MOCLDY    68  56  64 S15G22    30.04S
6HR MIN TEMP:  66; 6HR MAX TEMP:  72;

HILLSDALE      PTCLDY    70  54  56 S9        30.03R
HOWELL         PTCLDY    70  55  59 S8        30.02R
6HR MIN TEMP:  69; 6HR MAX TEMP:  77;


CITY           SKY/WX    TMP DP  RH WIND       PRES   REMARKS
JACKSON        PTCLDY    71  54  54 SE12      30.02R
6HR MIN TEMP:  71; 6HR MAX TEMP:  77;

LAMBERTVILLE   CLOUDY    73  51  46 S5        30.05R
6HR MIN TEMP:  73; 6HR MAX TEMP:  82;

LANSING        MOCLDY    71  55  56 S14       29.99S
6HR MIN TEMP:  71; 6HR MAX TEMP:  77;

LAPEER         FAIR      69  54  58 S7        30.03S
6HR MIN TEMP:  69; 6HR MAX TEMP:  75;

MASON          CLOUDY    72  55  55 S10G16    30.00R
MONROE         MOCLDY    72  51  48 S12       30.04S
6HR MIN TEMP:  71; 6HR MAX TEMP:  80;

MT. CLEMENS    MOCLDY    66  58  75 S10       30.04S
6HR MIN TEMP:  65; 6HR MAX TEMP:  73;

PONTIAC        MOCLDY    69  55  60 SE8       30.02F
6HR MIN TEMP:  69; 6HR MAX TEMP:  76;

PORT HOPE        N/A     70  56  61 S13G22    29.99R
6HR MIN TEMP:  70; 6HR MAX TEMP:  77;

PORT HURON     CLOUDY    70  55  60 SE12      30.05F
TRI CITIES     CLOUDY    74  58  57 S12       29.98R
6HR MIN TEMP:  73; 6HR MAX TEMP:  78;

MIDLAND        CLOUDY    73  58  58 CALM      29.97R
6HR MIN TEMP:  73; 6HR MAX TEMP:  79;

TROY           PTCLDY    71  54  55 S7        30.06S
SAGINAW HB     CLOUDY    72  55  56 S9        29.98S
$$
MIZ043>046-050>051-056>058-064>065-071>073-077>080-230100-
SOUTHWEST LOWER MICHIGAN

CITY           SKY/WX    TMP DP  RH WIND       PRES   REMARKS
BATTLE CREEK   CLOUDY    73  58  59 S12       29.99S
6HR MIN TEMP:  72; 6HR MAX TEMP:  75; 6HR PCP: TRACE;

BENTON HARBOR  CLOUDY    58  56  93 VRB6      30.01R
6HR MIN TEMP:  58; 6HR MAX TEMP:  73; 6HR PCP:  0.16;

BIG RAPIDS     DRIZZLE   55  53  92 NW6       30.00R
6HR MIN TEMP:  55; 6HR MAX TEMP:  75; 6HR PCP:  0.23;

COLDWATER      PTCLDY    71  53  53 S8        30.00S
6HR MIN TEMP:  71; 6HR MAX TEMP:  76;

FREMONT        LGT RAIN  52  52 100 N12       30.00R
HOLLAND        CLOUDY    58  56  93 NW5       30.00R
6HR MIN TEMP:  58; 6HR MAX TEMP:  74; 6HR PCP:  0.17;

GRAND RAPIDS   LGT RAIN  65  64  97 SW12      29.99R
6HR MIN TEMP:  65; 6HR MAX TEMP:  75; 6HR PCP:  0.06;

IONIA          CLOUDY    70  58  66 S7        29.96S
6HR MIN TEMP:  68; 6HR MAX TEMP:  75;

KALAMAZOO      CLOUDY    69  59  70 SW9       29.99R
6HR MIN TEMP:  68; 6HR MAX TEMP:  75; 6HR PCP: TRACE;

LUDINGTON      LGT RAIN  51  49  95 CALM      30.02R
6HR MIN TEMP:  51; 6HR MAX TEMP:  64; 6HR PCP:  0.29;

MARSHALL       PTCLDY    71  55  58 S8        29.99S
6HR MIN TEMP:  71; 6HR MAX TEMP:  75;

MOUNT PLEASANT CLOUDY    69  61  76 S3        29.96S
6HR MIN TEMP:  68; 6HR MAX TEMP:  79; 6HR PCP:  0.02;

MUSKEGON       LGT RAIN  54  52  93 N12       30.02R
6HR MIN TEMP:  54; 6HR MAX TEMP:  69; 6HR PCP:  0.31;

SOUTH HAVEN    CLOUDY    59  57  94 NW6       30.00R FOG
$$
MIZ016>042-230100-
NORTHERN LOWER MICHIGAN

CITY           SKY/WX    TMP DP  RH WIND       PRES   REMARKS
ALPENA         LGT RAIN  65  63  93 SW7       29.96R
6HR MIN TEMP:  65; 6HR MAX TEMP:  78; 6HR PCP:  0.04;

BEAVER ISLAND  DRIZZLE   51  50  95 NE3       29.99S
6HR MIN TEMP:  51; 6HR MAX TEMP:  69;

BELLAIRE       LGT RAIN  52  51  93 CALM      30.01S
6HR MIN TEMP:  52; 6HR MAX TEMP:  78;

CADILLAC       DRIZZLE   53  50  90 N3        30.00R
CHARLEVOIX     LGT RAIN  53  53 100 NW7       30.02S
FRANKFORT      RAIN      53  53  99 SE3       30.01R
GAYLORD        LGT RAIN  52  50  93 NW6       29.99R FOG
6HR MIN TEMP:  52; 6HR MAX TEMP:  74; 6HR PCP:  0.20;

GRAYLING       DRIZZLE   54  51  92 W7        30.01R
6HR MIN TEMP:  54; 6HR MAX TEMP:  76;

HARBOR SPRINGS DRIZZLE   52  51  95 CALM      29.99R
HOUGHTON LAKE  CLOUDY    60  58  92 NW8       29.98R
6HR MIN TEMP:  60; 6HR MAX TEMP:  76; 6HR PCP:  0.25;

MANISTEE       LGT RAIN  52  50  93 N3        30.02R
OSCODA         CLOUDY    71  55  58 S16G26    29.96R
6HR MIN TEMP:  71; 6HR MAX TEMP:  76;

PELLSTON       LGT RAIN  53  51  93 NW9       29.98R FOG
6HR MIN TEMP:  53; 6HR MAX TEMP:  79; 6HR PCP:  0.22;

ROGERS CITY    RAIN      60  58  95 NW6       29.97R
TRAVERSE CITY  LGT RAIN  54  51  90 NW6       30.00R FOG
6HR MIN TEMP:  54; 6HR MAX TEMP:  77; 6HR PCP:  0.31;

$$
MIZ007>008-015-230100-
EASTERN UPPER MICHIGAN

CITY           SKY/WX    TMP DP  RH WIND       PRES   REMARKS
KINROSS        LGT RAIN  50  49  96 NW6       29.98R FOG
6HR MIN TEMP:  50; 6HR MAX TEMP:  73;

MACKINAC ISLAN DRIZZLE   53  53 100 NW8       29.98R
6HR MIN TEMP:  52; 6HR MAX TEMP:  76; 6HR PCP:  0.25;

NEWBERRY       LGT RAIN  48  47  97 NE3       29.96F
6HR MIN TEMP:  48; 6HR MAX TEMP:  64; 6HR PCP:  0.48;

S. S. MARIE    LGT RAIN  51  49  92 NW8       29.96R FOG
6HR MIN TEMP:  51; 6HR MAX TEMP:  70; 6HR PCP:  0.46;

MUNISING         N/A     50  50 100 SW5       29.97R
6HR MIN TEMP:  50; 6HR MAX TEMP:  54; 6HR PCP:  0.28;

$$
MIZ004>006-011>014-085-230100-
CENTRAL UPPER MICHIGAN

CITY           SKY/WX    TMP DP  RH WIND       PRES   REMARKS
MANISTIQUE     LGT RAIN  49  44  81 CALM      29.98R
6HR MIN TEMP:  49; 6HR MAX TEMP:  59; 6HR PCP:  0.15;

ESCANABA       LGT RAIN  51  50  96 SW5       30.00R
6HR MIN TEMP:  50; 6HR MAX TEMP:  53; 6HR PCP:  0.08;

MENOMINEE      LGT RAIN  50  48  93 W3        30.02R
6HR MIN TEMP:  50; 6HR MAX TEMP:  52; 6HR PCP:  0.08;

SAWYER-GWINN   MOCLDY    46  46 100 S6        29.97R
$$
MIZ001>003-009>011-084-230100-
WESTERN UPPER MICHIGAN

CITY           SKY/WX    TMP DP  RH WIND       PRES   REMARKS
IRON MOUNTAIN  CLOUDY    48  45  89 S6        29.98R
6HR MIN TEMP:  48; 6HR MAX TEMP:  51; 6HR PCP: TRACE;

HOUGHTON       CLOUDY    48  38  68 S6        29.91R
6HR MIN TEMP:  48; 6HR MAX TEMP:  52; 6HR PCP: TRACE;

COPPER HARBOR    N/A     51  42  71 CALM      29.91R
6HR MIN TEMP:  50; 6HR MAX TEMP:  52; 6HR PCP:  0.01;

IRONWOOD       PTCLDY    49  38  65 S8        29.93R
6HR MIN TEMP:  49; 6HR MAX TEMP:  52;

$$

ABBREVIATIONS USED IN REMARKS
   TC - TEMPERATURE IN CELSIUS
  WCI - WIND CHILL INDEX
   HX - HEAT INDEX
  VSB - VISIBILITY





USA.gov is the U.S. government's official web portal to all federal, state and local government web resources and services.